User: anonymous   Login
Location: Newark
(46.7636°N, 1.8358°W)
Time: 21:21:04
(UTC+00:00)
Language:

SR - Orbit

View from above orbital plane
View from above orbital plane
View from above satellite
View from above satellite

Ground track
Ground track

The orbit data is extracted from the following two-line orbital elements,

1    46U 60007B   19290.58292696  .00000020  00000-0  27066-4 0  9998
2    46  66.6916 345.4658 0215709 311.5616  46.7168 14.49249936103768
Epoch (UTC): 17 October 2019 13:59:24
Eccentricity: 0.0215709
inclination: 66.6916°
perigee height: 575 km
apogee height: 881 km
right ascension of ascending node: 345.4658°
argument of perigee: 311.5616°
revolutions per day: 14.49249936
mean anomaly at epoch: 46.7168°
orbit number at epoch: 10376

The dashed part of the orbit path shows where the satellite is in the earth's shadow,  

DLR